SCP
-0 -0 0 0 0 0 0 0 0 0 0 0 0 0 0 0 0 0 0 0 0 1 1 1 1 1 0 0 0 0 0 0 0 0 0 0 0 0 0 0 0 0 0 0 0 0 0 0 0
-0 -0 0 0 0 0 0 0 0 0 0 0 0 0 0 0 0 0 0 0 0 1 1 1 1 1 0 0 0 0 0 0 0 0 0 0 0 0 0 0 0 0 0 0 0 0 0 0 0
0 0 0 0 0 0 0 0 0 0 0 0 0 0 0 0 0 0 0 0 1 1 1 1 1 1 0 0 0 0 0 0 0 0 0 0 0 0 0 0 0 0 0 0 0 0 0 0 0
-0 0 0 0 0 0 0 0 0 0 0 0 0 0 0 0 0 0 0 0 1 1 1 1 1 1 0 0 0 0 0 0 0 0 0 0 0 0 0 0 0 0 0 0 0 0 0 0 0
-0 0 0 0 0 0 0 0 0 0 0 0 0 0 0 0 0 0 0 0 0 0 0 1 1 1 0 0 0 0 0 0 0 0 0 0 0 0 0 0 0 0 0 0 0 0 0 0 0
0 0 0 0 0 0 0 0 0 0 0 0 0 0 0 0 0 0 0 0 0 0 0 0 1 1 0 0 0 0 0 0 0 0 0 0 0 0 0 0 0 0 0 0 0 0 0 0 0
0 0 0 0 0 0 0 0 0 0 0 0 0 0 0 0 0 0 0 0 0 0 0 0 0 0 0 0 0 0 0 0 0 0 0 0 0 0 0 0 0 0 0 0 0 0 0 0 0
0 0 0 0 0 0 0 0 0 0 0 0 0 0 0 0 0 0 0 0 0 0 0 0 0 0 0 0 0 0 0 0 0 0 0 0 0 0 0 0 0 0 0 0 0 0 0 0 0
0 0 0 0 0 0 0 0 0 0 0 0 0 0 0 0 1 1 1 1 1 1 0 0 0 0 0 0 0 0 0 0 0 0 0 0 0 0 0 0 0 0 0 0 0 0 0 0 0
0 0 0 0 0 0 0 0 0 0 0 0 0 0 0 0 1 1 1 1 1 1 1 0 0 0 0 0 0 0 0 0 0 0 0 0 0 0 0 0 0 0 0 0 0 0 0 0 0
0 0 0 0 0 0 0 0 0 0 0 0 0 0 0 0 1 1 1 1 1 1 1 0 0 0 0 0 0 0 0 0 0 0 0 0 0 0 0 0 0 0 0 0 0 0 0 0 0
0 0 0 0 0 0 0 0 0 0 0 0 0 0 0 0 0 1 1 1 1 1 1 1 0 0 0 0 0 0 0 0 0 0 0 0 0 0 0 0 0 0 0 0 0 0 0 0 0
0 0 0 0 0 0 0 0 0 0 0 0 0 0 0 0 0 0 1 1 1 1 1 1 1 0 0 0 0 0 0 0 0 0 0 0 0 0 0 0 0 0 0 0 0 0 0 0 0
0 0 0 0 0 0 0 0 0 0 0 0 0 0 0 0 1 1 1 1 1 1 1 1 1 1 0 0 0 0 0 0 0 0 0 0 0 0 0 0 0 0 0 0 0 0 0 0 0
0 0 0 0 0 0 0 0 0 0 0 0 0 1 1 1 1 1 1 1 1 1 1 1 1 1 1 0 0 0 0 0 0 0 0 0 0 0 0 0 0 0 0 0 0 0 0 0 0
0 0 0 0 0 0 0 0 0 0 0 0 1 1 1 1 1 1 1 1 1 1 1 1 1 1 1 0 0 0 0 0 0 0 0 0 0 0 0 0 0 0 0 0 0 0 0 0 0
0 0 0 0 0 0 0 0 0 0 0 1 1 1 1 1 1 1 1 1 1 1 1 1 1 1 1 1 0 0 0 0 0 0 0 0 0 0 0 0 0 0 0 0 0 0 0 0 0
0 0 0 0 0 0 0 0 0 0 0 1 1 1 1 1 1 1 1 1 1 1 1 1 1 1 1 1 1 0 0 0 0 0 0 0 0 0 0 0 0 0 0 0 0 0 0 0 0
0 0 0 0 0 0 0 0 0 0 0 1 1 1 1 1 1 1 1 1 1 1 1 1 1 1 1 1 1 1 0 0 0 0 0 0 0 0 0 0 0 0 0 0 0 0 0 0 0
0 0 0 0 0 0 0 0 0 0 0 0 1 1 1 1 1 1 1 1 1 1 1 1 1 1 1 1 1 1 1 0 0 0 0 0 0 0 0 0 0 0 0 0 0 0 0 0 0
0 0 0 0 0 0 0 0 0 0 0 0 0 1 1 1 1 1 1 1 1 1 1 1 1 1 1 1 1 1 1 1 0 0 0 0 0 0 0 0 0 0 0 0 0 0 0 0 0
0 0 0 0 0 0 0 0 0 0 0 0 0 1 1 1 1 1 1 1 1 1 1 1 1 1 1 1 1 1 1 1 0 0 0 0 0 0 0 0 0 0 0 0 0 0 0 0 0
0 0 0 0 0 0 0 0 0 0 0 0 0 0 1 1 1 1 1 1 1 1 1 1 1 1 1 1 1 1 1 1 0 0 0 0 0 0 0 0 0 0 0 0 0 0 0 0 0
0 0 0 0 0 0 0 0 0 0 0 0 0 0 0 1 1 1 1 1 1 1 1 1 1 1 1 1 1 1 1 1 1 0 0 0 0 0 0 0 0 0 0 0 0 0 0 0 0
0 0 0 0 0 0 0 0 0 0 0 0 0 0 0 1 1 1 1 1 1 1 1 1 1 1 1 1 1 1 1 1 1 1 0 0 0 0 0 0 0 0 0 0 0 0 0 0 0
0 0 0 0 0 0 0 0 0 0 0 0 0 0 1 1 1 1 1 1 1 1 1 1 1 1 1 1 1 1 1 1 1 1 1 0 0 0 0 0 0 0 0 0 0 0 0 0 0
0 0 0 0 0 0 0 0 0 0 0 0 0 1 1 1 1 1 1 1 1 1 1 1 1 1 1 1 1 1 1 1 1 1 1 1 0 0 0 0 0 0 0 0 0 0 0 0 0
0 0 0 0 0 0 0 0 0 0 0 0 1 1 1 1 1 1 1 1 1 1 1 1 1 1 1 1 1 1 1 1 1 1 1 1 1 1 0 0 0 0 0 0 0 0 0 0 0
0 0 0 0 0 0 0 0 0 0 0 0 1 1 1 1 1 1 1 1 1 1 1 1 1 1 1 1 1 1 1 1 1 1 1 1 1 1 1 0 0 0 0 0 0 0 0 0 0
0 0 0 0 0 0 0 0 0 0 0 0 0 0 1 1 1 1 1 1 1 1 1 1 1 1 1 1 1 1 1 1 1 1 1 1 1 1 1 0 0 0 0 0 0 0 0 0 0
Wind_Speed
3 2 2 2 5 5 1 1 3 3 3 4 9 10 9 7 5 6 3 12 14 12 9 12 14 14 14 14 14 14 14 14 13 13 13 13 13 13 13 12 12 12 12 12 12 11 11 10 10
2 2 2 4 5 3 2 0 4 3 5 7 10 10 9 7 7 9 6 12 14 12 9 11 14 14 14 14 14 13 14 13 13 12 13 12 12 12 12 12 12 11 11 11 11 10 10 9 10
2 2 3 4 3 3 3 1 3 3 4 5 6 6 6 6 8 7 9 15 13 10 8 11 16 15 14 14 14 13 13 13 12 12 12 12 12 11 11 11 11 10 9 9 9 9 9 9 9
1 3 3 4 2 5 4 3 4 4 4 5 8 7 5 5 6 10 15 16 14 10 8 11 15 15 14 14 14 13 13 12 12 11 11 11 11 10 10 10 10 9 8 8 8 8 7 7 7
3 4 4 2 3 3 3 5 6 6 4 5 9 7 4 3 13 17 16 15 14 10 8 10 14 15 14 14 14 13 12 12 11 11 11 10 10 9 9 9 9 8 8 7 7 6 6 6 6
3 4 3 2 4 3 1 2 5 8 8 7 9 7 3 6 14 15 15 13 13 13 9 9 14 15 14 14 13 13 12 11 11 10 10 10 9 9 8 8 8 7 7 6 6 5 5 5 5
3 3 1 2 3 3 2 1 6 7 7 5 7 6 4 6 10 13 13 12 11 12 10 8 8 10 13 13 13 13 12 11 10 10 10 9 9 8 8 7 7 7 7 6 5 5 4 4 4
4 3 1 1 2 4 3 2 5 7 5 6 6 8 7 7 9 11 11 10 10 9 9 8 7 7 7 8 12 13 12 12 11 10 10 9 9 8 7 6 7 7 7 6 5 4 3 3 3
3 3 2 4 3 3 1 3 2 4 7 4 3 6 10 12 12 12 10 8 8 8 7 7 8 7 7 7 10 10 11 10 10 8 9 7 3 3 4 6 6 7 6 5 5 4 3 2 2
4 3 7 5 3 3 1 1 2 3 5 4 6 7 12 13 13 13 11 10 9 9 8 7 8 7 7 7 6 4 5 5 4 3 4 3 3 3 4 5 6 6 5 5 4 4 2 2 1
3 6 6 4 4 3 1 1 1 6 4 8 12 13 12 12 11 12 11 11 10 10 9 8 7 7 7 5 5 3 2 3 3 3 4 3 2 2 2 1 2 3 3 2 2 1 0 1 2
3 5 4 5 5 3 3 2 2 4 7 11 15 16 13 12 11 11 11 10 9 9 8 8 8 6 6 5 5 4 3 3 3 3 4 3 2 2 2 1 2 2 1 1 1 1 1 1 2
3 4 4 6 4 3 2 2 2 2 7 11 14 13 13 12 9 8 8 9 9 9 8 7 8 7 6 5 4 5 4 4 4 3 3 4 3 3 2 2 2 2 2 2 2 1 1 2 2
4 4 4 4 3 2 3 1 2 3 9 11 12 11 11 11 10 8 7 7 9 9 8 7 7 7 6 5 4 4 4 4 4 3 4 4 3 3 2 2 2 2 2 2 2 2 2 1 1
3 4 6 4 2 2 3 1 2 6 9 10 10 10 10 9 9 9 9 8 9 9 8 9 8 7 6 5 5 4 4 4 3 3 3 4 3 3 3 2 1 1 2 2 2 2 1 1 1
4 2 3 7 3 2 4 3 4 5 8 8 8 8 8 7 7 8 9 8 7 8 8 8 8 7 6 5 5 4 4 4 3 2 2 3 3 4 3 2 1 1 2 2 2 2 2 1 1
3 2 4 8 4 2 3 4 4 5 8 7 7 8 8 6 5 6 9 9 8 7 7 7 7 7 6 5 4 4 4 3 3 2 2 2 3 3 3 2 1 2 2 1 2 2 2 2 1
5 4 5 7 5 1 2 4 4 5 8 8 8 8 9 8 6 7 8 8 7 7 7 6 6 6 6 4 3 3 3 2 2 2 3 3 2 3 3 2 1 2 2 1 1 2 2 2 2
5 5 7 8 6 1 4 4 5 4 5 7 7 8 9 8 7 6 7 7 7 7 7 6 6 4 4 4 3 3 3 2 2 2 3 3 3 3 2 2 2 2 2 2 2 2 2 1 1
7 7 8 7 4 2 3 4 4 4 6 7 10 10 9 8 7 7 6 6 7 7 7 6 6 5 4 4 3 3 3 2 2 1 2 3 3 3 3 2 2 2 2 1 1 2 2 1 2
8 7 7 6 4 2 2 2 2 1 2 4 7 9 9 11 10 9 8 7 6 6 7 7 6 5 4 4 3 3 3 2 1 1 1 2 2 3 3 3 2 2 2 2 2 3 3 2 1
8 8 6 5 1 3 2 1 5 3 0 2 4 6 7 8 9 8 8 8 7 6 5 5 5 5 4 4 5 6 4 4 3 2 2 1 2 3 3 3 3 2 2 2 2 3 2 3 2
8 6 4 4 3 1 1 3 5 1 1 3 3 5 7 8 9 9 9 9 7 6 6 5 4 4 4 5 5 5 4 3 2 2 2 1 1 2 2 2 2 2 2 2 2 3 2 2 3
4 1 3 3 4 1 4 3 4 3 5 4 4 4 5 6 7 7 6 7 6 5 5 5 5 4 4 5 4 5 5 4 4 3 2 1 1 1 1 2 2 2 2 2 2 3 3 3 3
2 4 3 4 3 5 3 3 5 4 4 5 5 4 4 5 6 7 7 6 6 5 5 5 5 4 4 5 4 4 5 5 5 3 3 2 2 1 2 2 2 2 2 2 2 2 2 3 3
3 8 7 5 4 4 1 2 4 3 3 4 4 4 5 4 5 6 7 7 6 6 5 5 5 4 4 4 4 3 4 3 3 3 3 3 2 3 2 2 2 2 2 2 2 2 2 2 3
3 3 7 7 2 1 2 2 3 2 3 4 4 5 5 5 5 6 6 6 6 7 6 6 5 4 4 4 4 4 3 3 3 3 2 2 2 2 2 2 2 2 1 2 2 2 2 2 3
5 6 5 5 4 2 2 3 4 2 2 3 3 4 3 4 5 6 6 6 5 5 6 5 6 5 4 4 4 3 3 3 3 3 2 2 1 1 2 2 2 1 1 1 2 1 1 2 2
2 2 3 4 6 6 3 5 4 5 5 5 4 4 4 5 5 5 4 4 4 4 4 4 4 4 4 4 4 3 3 3 3 3 2 2 2 1 2 3 2 2 2 1 2 2 1 2 1
3 3 4 4 3 4 4 5 2 2 3 5 5 5 4 4 5 5 4 4 3 3 3 3 4 4 4 4 4 4 4 3 3 3 2 2 2 2 2 2 2 3 2 2 2 2 2 2 2
Wind_Direction
237 207 139 72 52 52 22 261 104 60 27 59 81 86 83 69 102 130 140 138 136 140 141 135 131 128 126 124 123 120 118 117 117 116 114 112 112 112 112 113 114 113 113 112 112 110 108 106 109
227 184 79 56 73 59 290 219 79 104 135 112 91 88 81 72 87 113 122 140 139 139 140 138 134 131 129 127 126 125 123 122 121 120 119 118 116 116 115 115 114 114 114 114 114 113 111 109 112
241 179 92 69 100 173 216 163 113 112 120 100 90 69 78 110 115 127 142 142 136 136 139 143 138 135 133 132 131 129 128 127 126 125 124 121 120 118 117 118 118 116 114 116 117 115 114 112 114
77 55 52 71 206 222 194 202 141 120 69 65 90 68 62 106 125 133 139 140 137 139 142 145 140 139 138 138 136 134 133 133 131 129 127 126 125 124 123 123 122 121 121 120 119 118 116 114 117
72 67 47 8 265 247 211 203 165 135 102 89 95 96 77 75 117 131 142 143 141 142 145 147 145 145 144 143 142 141 140 139 137 134 131 130 132 131 131 131 130 129 128 125 122 121 119 120 124
48 67 67 313 289 289 243 181 125 106 105 106 104 112 116 127 129 141 144 144 145 146 148 149 150 150 150 149 147 146 146 145 143 140 138 137 140 141 140 140 140 140 139 134 131 128 128 130 134
117 91 191 240 292 304 248 146 120 124 125 130 125 110 130 145 142 141 141 139 144 147 147 151 153 154 155 155 154 153 152 151 150 149 149 149 149 150 152 150 150 153 155 151 147 148 142 136 135
145 98 319 274 249 259 244 111 118 124 116 128 127 135 162 169 141 132 132 132 139 147 152 155 156 157 157 158 161 160 159 158 158 158 159 159 159 161 164 164 166 167 168 167 168 170 168 162 152
109 80 257 238 210 251 256 84 77 97 116 123 112 143 152 146 131 128 128 129 142 150 157 162 165 164 163 166 168 164 165 165 164 166 168 166 162 164 176 180 177 176 178 181 186 188 184 178 165
112 168 237 225 196 207 238 111 144 99 96 84 85 106 129 136 135 141 149 152 157 163 169 170 169 168 169 171 157 159 164 164 164 167 166 166 169 181 184 185 189 187 188 195 204 205 189 164 127
177 211 244 258 238 207 219 267 93 129 137 157 152 149 146 144 146 153 160 161 165 166 167 167 170 167 168 161 154 161 160 159 166 169 165 161 165 176 182 182 194 199 197 201 204 212 178 143 136
222 251 243 243 242 208 202 188 134 160 184 168 157 154 151 154 161 164 164 162 158 156 161 163 164 160 168 158 159 162 162 166 172 174 166 154 157 166 172 183 187 185 185 182 177 173 173 161 169
258 261 255 244 245 216 196 195 178 161 146 144 146 151 156 161 161 158 157 155 153 156 158 159 161 161 160 151 158 159 168 170 170 166 169 162 161 170 168 176 188 190 178 175 177 184 186 197 199
253 272 273 265 251 200 158 211 115 167 142 142 150 159 165 162 158 152 149 154 159 162 159 153 153 157 154 156 153 157 165 159 156 165 171 166 165 167 166 165 176 188 183 177 180 188 186 193 182
309 323 312 288 258 232 117 3 194 167 147 150 156 165 166 158 156 157 157 156 155 157 156 155 156 151 147 150 153 149 153 148 154 170 171 168 166 165 163 161 179 194 177 167 158 169 163 175 175
352 350 300 285 266 240 116 234 245 163 149 154 159 157 153 152 158 157 150 142 140 143 148 157 152 146 147 151 147 144 145 145 158 164 163 166 163 156 154 157 181 180 152 153 156 155 152 173 178
356 278 264 283 276 231 141 213 230 173 148 145 145 145 142 132 130 141 143 140 139 139 140 141 142 148 151 151 142 136 138 143 155 162 162 163 159 154 147 159 175 152 139 154 171 146 149 155 181
245 251 261 265 277 219 186 212 210 178 153 154 150 147 142 144 158 150 141 142 137 130 130 129 130 142 148 141 127 121 124 134 147 165 159 152 150 146 145 153 159 142 130 138 141 139 150 166 180
230 257 264 266 265 218 200 210 209 188 156 151 150 151 151 156 153 142 142 143 139 133 132 137 138 150 148 145 147 147 155 150 144 159 151 146 143 140 138 149 146 143 146 169 163 145 151 172 133
244 259 267 280 274 199 206 229 215 189 180 172 161 163 163 151 140 141 139 140 141 142 141 146 150 152 160 163 164 158 149 152 149 145 139 153 154 161 157 156 165 168 156 150 158 145 150 185 153
247 232 241 251 301 346 104 340 289 241 161 138 151 160 157 158 159 156 151 151 149 151 153 150 154 152 158 155 133 119 97 88 98 132 179 195 175 166 158 163 163 171 169 184 191 167 163 176 190
247 243 229 232 220 271 128 232 278 252 310 133 147 152 158 161 156 155 157 157 157 161 157 150 154 152 151 148 150 153 156 166 191 186 186 195 184 174 166 163 164 166 170 188 201 180 172 161 184
230 242 231 229 194 235 324 153 274 328 214 224 193 168 167 164 158 161 166 163 162 160 155 152 146 145 145 149 153 155 158 172 165 160 151 169 183 177 173 167 168 171 177 190 193 177 174 174 178
217 351 9 38 74 258 237 166 260 227 209 210 198 183 168 159 161 159 157 152 153 157 152 147 144 152 151 149 149 153 154 150 142 151 162 181 196 201 190 174 171 184 184 189 187 183 180 184 179
87 89 28 357 6 250 235 155 235 236 202 190 185 183 155 147 150 152 150 149 153 151 150 148 148 157 161 156 160 164 159 151 155 165 173 176 184 202 214 192 188 194 200 195 184 182 186 181 177
195 142 159 193 222 269 305 214 247 253 194 165 158 150 133 132 140 151 160 157 154 154 154 155 163 168 168 166 168 165 157 157 164 163 172 181 195 204 198 190 195 198 191 188 180 182 193 183 191
166 175 171 147 180 214 267 270 298 359 97 118 117 120 136 141 145 149 147 148 157 161 165 168 168 169 170 172 165 163 164 161 162 164 166 180 198 192 172 178 194 204 194 189 169 188 204 192 197
162 161 109 124 159 230 254 236 236 258 171 144 129 125 142 145 148 143 141 146 156 167 167 165 167 174 175 167 172 165 170 172 167 161 172 183 191 184 171 182 197 210 203 194 181 186 200 191 204
53 82 121 138 155 164 220 257 230 201 184 159 150 141 144 145 145 139 141 150 144 145 157 161 167 167 172 174 171 166 172 171 160 164 184 193 190 185 197 198 192 193 201 204 190 193 181 190 208
144 146 135 151 209 169 170 257 285 177 158 147 147 146 153 156 156 144 141 143 141 140 155 173 177 178 186 181 166 174 178 174 173 179 186 181 186 195 200 195 194 195 199 197 196 204 199 191 197